{"data":{"norad_id":58860,"epoch":"2026-09-20T22:30:31.746816Z","epoch_age_seconds":114702,"freshness":"FRESH","line1":"1 58860U 24019H   26263.93786744 -.00000609  00000+0 -12630-4 0  9992","line2":"2 58860  43.0018 226.2138 0000470 287.4400  72.6400 15.27574390148943","mean_motion":15.2757439,"eccentricity":4.7e-5,"inclination_deg":43.0018,"raan_deg":226.2138,"arg_perigee_deg":287.44,"mean_anomaly_deg":72.64,"bstar":-1.263e-5,"rev_number":14894,"period_min":94.26709490724,"perigee_km":482.74341791321,"apogee_km":483.38837098529,"semimajor_km":6861.2028944492,"source":"CELESTRAK","updated_at":"2026-09-21T09:00:33.988352Z"}}